Weather History for CWWK - October, 2012

Change the Weather History Date:

Wednesday, October 3, 2012

  Actual Average Record
Temperature  
Mean Temperature 55 °F -  
Max Temperature 67 °F - - ()
Min Temperature 43 °F - - ()
Degree Days  
Heating Degree Days 10    
Growing Degree Days 5 (Base 50)    
Moisture  
Dew Point 35 °F    
Average Humidity 49    
Maximum Humidity 76    
Minimum Humidity 20    
Precipitation  
Precipitation 0.02 in - - ()
Sea Level Pressure  
Sea Level Pressure 30.39 in    
Wind  
Wind Speed 2 mph ()    
Max Wind Speed 5 mph    
Max Gust Speed -    
T = Trace of Precipitation, MM = Missing Value Source: Averaged Metar Reports

Daily Weather History Graph

Daily Weather History Graph

Search for Another Location

Airport or City:

Trip Planner

Search our weather history database for the weather conditions in past years. The results will help you decide how hot, cold, wet, or windy it might be!

Date:

Astronomy

Oct. 03, 2012 Rise Set
Actual Time 7:14 AM PDT 6:44 PM PDT
Civil Twilight 6:43 AM PDT 7:15 PM PDT
Nautical Twilight 6:06 AM PDT 7:52 PM PDT
Astronomical Twilight 5:28 AM PDT 8:29 PM PDT
Moon 8:18 PM PDT (10/3) 11:04 AM PDT (10/3)
Length of Visible Light 12h 32m
Length of Day
11h 29m
Waning Gibbous, 88% of the Moon is Illuminated
Oct 3
Waning Gibbous
Oct 8
Last Quarter
Oct 15
New
Oct 21
First Quarter
Oct 29
Full

Hourly Weather History & Observations

Time (PDT) Temp. Windchill Dew Point Humidity Pressure Visibility Wind Dir Wind Speed Gust Speed Precip Events Conditions
12:00 AM 50.9 °F - 35.8 °F 56% 30.37 in - NE 2.3 mph - N/A   Unknown
1:00 AM 48.0 °F - 35.4 °F 62% 30.39 in - ENE 1.2 mph - N/A   Unknown
2:00 AM 46.9 °F - 35.8 °F 65% 30.40 in - Calm Calm - N/A   Unknown
3:00 AM 46.2 °F - 35.8 °F 67% 30.42 in - NE 2.3 mph - N/A   Unknown
4:00 AM 43.9 °F - 36.9 °F 76% 30.43 in - ESE 1.2 mph - N/A   Unknown
5:00 AM 45 °F - 36 °F 62% 30.43 in - East 1.2 mph - -  
5:00 AM 44.8 °F - 36.1 °F 72% 30.43 in - East 1.2 mph - N/A   Unknown
6:00 AM 45.1 °F - 34.0 °F 65% 30.44 in - East 2.3 mph - N/A   Unknown
7:00 AM 45.5 °F 44.2 °F 35.1 °F 67% 30.44 in - North 3.5 mph - N/A   Unknown
8:00 AM 45.3 °F - 34.5 °F 66% 30.44 in - NNE 2.3 mph - 0.02 in   Unknown
9:00 AM 51.1 °F - 33.6 °F 51% 30.45 in - NW 1.2 mph - N/A   Unknown
10:00 AM 56.5 °F - 34.2 °F 43% 30.45 in - NE 2.3 mph - N/A   Unknown
11:00 AM 61 °F - 34 °F 25% 30.45 in - NE 2.3 mph - -  
11:00 AM 61.3 °F - 34.2 °F 36% 30.45 in - NE 2.3 mph - N/A   Unknown
12:00 PM 64.8 °F - 33.3 °F 31% 30.44 in - North 2.3 mph - N/A   Unknown
1:00 PM 64.9 °F - 36.5 °F 35% 30.42 in - South 3.5 mph - N/A   Unknown
2:00 PM 62.1 °F - 43.7 °F 51% 30.40 in - West 4.6 mph - N/A   Unknown
3:00 PM 62.2 °F - 42.8 °F 49% 30.38 in - West 4.6 mph - N/A   Unknown
4:00 PM 66.0 °F - 36.3 °F 33% 30.37 in - WNW 2.3 mph - N/A   Unknown
5:00 PM 64 °F - 33 °F 20% 30.36 in - West 2.3 mph - -  
5:00 PM 64.4 °F - 31.3 °F 29% 30.36 in - West 2.3 mph - N/A   Unknown
6:00 PM 62.1 °F - 31.8 °F 32% 30.35 in - NW 3.5 mph - N/A   Unknown
7:00 PM 59.0 °F - 29.3 °F 32% 30.35 in - NNW 4.6 mph - N/A   Unknown
8:00 PM 57.4 °F - 29.5 °F 35% 30.33 in - NNW 3.5 mph - N/A   Unknown
9:00 PM 51.4 °F - 33.6 °F 51% 30.33 in - Calm Calm - N/A   Unknown
10:00 PM 49.1 °F - 33.8 °F 56% 30.32 in - NE 2.3 mph - N/A   Unknown
11:00 PM 49 °F - 35 °F 46% 30.33 in - NE 2.3 mph - -  
11:00 PM 48.6 °F - 34.5 °F 58% 30.33 in - NE 2.3 mph - N/A   Unknown